FENGYUN 1C DEB, 33502

Orbit data source: Space-Track

FENGYUN 1C DEB, 33502 is space debris in SSO originally from a launch on Mon, 10 May 1999 UTC launched from the Taiyaun Space Center, China (TSC). Fengyun 1C debris stems from the Chinese weather satellite Fengyun-1C, which was intentionally destroyed by a Chinese anti-satellite missile in 2007. This event dramatically increased the amount of space debris, with thousands of trackable fragments posing hazards to satellites and human spaceflight. The Fengyun 1C debris cloud has become a focal point in discussions about space sustainability and the need for international regulations to prevent the creation of new debris.

Loading next visibility...
Identifier
33502, 1999-025DCF
Orbit
SSO
Country
Flag of CNCN / PRC
Related business
Manufacturer
Unknown
Mission
Spacecraft
Bus & Motor
Unknown
Mass
Unknown
Launch date (UTC)
1999-05-10 (27 years ago)
Launch vehicle
Unknown
Launch site
Taiyaun Space Center, China (TSC)
Object type
Payload
Rocket body
Debris
Shape & HBR
Unknown shape, 0.1 m
Radar Cross Section
Medium (>0.1 m² and <1 m²)

Expand to show TLE details & history
Last TLE update: 17 hours ago

TLE from 17 hours ago
0 FENGYUN 1C DEB
1 33502U 99025DCF 26207.84804252  .00003288  00000-0  13983-2 0  9995
2 33502  99.0306 161.4718 0074878 225.0725 161.8202 14.24447304901729
Epoch: 2026-07-26T20:21Z
TLE epoch observation values (Epoch: 2026-07-26T20:21:10.873Z)
Latitude
26.83196°
Longitude
-92.95048°
Altitude
864.802 km
Speed
7.396 km/s
True Right ascension
10h 27m 32s
True Declination
26° 41' 45"
Sunlit
Object was in daylight at epoch
Visualization orbit readout
Latitude
Unknown
Longitude
Unknown
Altitude
Unknown
Speed
Unknown
Apparent Right ascension
Unknown
Apparent Declination
Unknown
Sunlit
N/A
Visualization observer readout
Local Sidereal Time
02:21:46
Azimuth
Unknown
Elevation
Unknown
Doppler factor
Unknown
Orbital elements
Apogee altitude
861.324 km
Perigee altitude
753.715 km
Semi-major axis
7,185.657 km
Eccentricity
0.00749
Inclination
99.0306°
RAAN
161.4718°
Arg. of periapsis
225.0725°
True anomaly
162.08555°
Mean anomaly
161.8202°
Eccentric anomaly
161.95311°
Mean motion
3.56323 °/min
Orbital period
101.03 mins
BSTAR
0.0013983
Loading maneuver chart data...
Computing Atmospheric mass density...

Documentation

Showing up to 5 results
|